Superior, WI

8:58 AM CST on December 07, 2016 (GMT -0600)
Bong

Weather History for KSUW - October, 2012

Change the Weather History Date:

Thursday, October 4, 2012

  Actual Average Record
Temperature  
Mean Temperature 46 °F -  
Max Temperature 53 °F 58 °F 78 °F (1963)
Min Temperature 39 °F 40 °F 21 °F (1965)
Degree Days  
Heating Degree Days 19    
Moisture  
Dew Point 37 °F    
Average Humidity 69    
Maximum Humidity 94    
Minimum Humidity 46    
Precipitation  
Precipitation 0.00 in - - ()
Sea Level Pressure  
Sea Level Pressure 29.82 in    
Wind  
Wind Speed 13 mph (WSW)    
Max Wind Speed 29 mph    
Max Gust Speed 39 mph    
Visibility 10 miles    
Events      
Averages and records for this station are not official NWS values.
T = Trace of Precipitation, MM = Missing Value Source: NWS Daily Summary

Daily Weather History Graph

Daily Weather History Graph

Search for Another Location

Airport or City:

Trip Planner

Search our weather history database for the weather conditions in past years. The results will help you decide how hot, cold, wet, or windy it might be!

Date:

Astronomy

Oct. 04, 2012 Rise Set
Actual Time 7:11 AM CDT 6:41 PM CDT
Civil Twilight 6:41 AM CDT 7:11 PM CDT
Nautical Twilight 6:06 AM CDT 7:46 PM CDT
Astronomical Twilight 5:30 AM CDT 8:21 PM CDT
Moon 9:00 PM CDT (10/4) 11:45 AM CDT (10/4)
Length of Visible Light 12h 29m
Length of Day
11h 29m
Waning Gibbous, 82% of the Moon is Illuminated
Oct 4
Waning Gibbous
Oct 8
Last Quarter
Oct 15
New
Oct 21
First Quarter
Oct 29
Full

Hourly Weather History & Observations

Time (CDT) Temp. Windchill Dew Point Humidity Pressure Visibility Wind Dir Wind Speed Gust Speed Precip Events Conditions
12:15 AM 53.6 °F - 46.4 °F 77% 29.89 in 10.0 mi East 4.6 mph - N/A   Clear
12:35 AM 53.6 °F - 46.4 °F 77% 29.88 in 10.0 mi ENE 4.6 mph - N/A   Clear
12:55 AM 51.8 °F - 46.4 °F 82% 29.87 in 10.0 mi ENE 6.9 mph - N/A   Clear
1:15 AM 51.8 °F - 46.4 °F 82% 29.86 in 10.0 mi ENE 5.8 mph - N/A   Clear
1:35 AM 53.6 °F - 46.4 °F 77% 29.86 in 10.0 mi ENE 6.9 mph - N/A   Clear
1:55 AM 51.8 °F - 48.2 °F 88% 29.85 in 10.0 mi ENE 9.2 mph - N/A   Clear
2:15 AM 51.8 °F - 48.2 °F 88% 29.84 in 10.0 mi NE 9.2 mph - N/A   Clear
2:35 AM 51.8 °F - 48.2 °F 88% 29.83 in 10.0 mi ENE 9.2 mph - N/A   Clear
2:55 AM 51.8 °F - 48.2 °F 88% 29.82 in 10.0 mi NE 10.4 mph 17.3 mph N/A   Clear
3:15 AM 51.8 °F - 48.2 °F 88% 29.81 in 10.0 mi NE 10.4 mph - N/A   Clear
3:35 AM 51.8 °F - 48.2 °F 88% 29.79 in 10.0 mi ENE 10.4 mph - N/A   Clear
3:55 AM 51.8 °F - 48.2 °F 88% 29.79 in 10.0 mi ENE 10.4 mph - N/A   Clear
4:15 AM 51.8 °F - 48.2 °F 88% 29.78 in 10.0 mi ENE 8.1 mph - N/A   Clear
4:35 AM 51.8 °F - 48.2 °F 88% 29.76 in 10.0 mi NE 9.2 mph - N/A   Clear
4:55 AM 51.8 °F - 48.2 °F 88% 29.75 in 10.0 mi NE 6.9 mph - N/A   Clear
5:15 AM 51.8 °F - 48.2 °F 88% 29.74 in 10.0 mi NE 5.8 mph - N/A   Clear
5:55 AM 51.8 °F - 48.2 °F 88% 29.70 in 10.0 mi ENE 9.2 mph - N/A   Clear
6:15 AM 51.8 °F - 48.2 °F 88% 29.70 in 10.0 mi NE 8.1 mph - N/A   Scattered Clouds
6:35 AM 51.8 °F - 48.2 °F 88% 29.69 in 10.0 mi NE 8.1 mph - N/A   Overcast
6:55 AM 51.8 °F - 48.2 °F 88% 29.68 in 10.0 mi NE 6.9 mph - N/A   Scattered Clouds
7:15 AM 51.8 °F - 48.2 °F 88% 29.68 in 10.0 mi NE 5.8 mph - N/A   Clear
7:35 AM 50.0 °F - 48.2 °F 94% 29.67 in 10.0 mi ENE 4.6 mph - N/A   Clear
7:55 AM 50.0 °F - 46.4 °F 87% 29.67 in 10.0 mi South 11.5 mph 16.1 mph N/A   Clear
8:15 AM 53.6 °F - 42.8 °F 67% 29.69 in 10.0 mi SW 19.6 mph 26.5 mph N/A   Clear
8:35 AM 51.8 °F - 41.0 °F 67% 29.70 in 10.0 mi SW 21.9 mph 33.4 mph N/A   Scattered Clouds
8:55 AM 51.8 °F - 42.8 °F 71% 29.70 in 10.0 mi SW 17.3 mph 27.6 mph N/A   Mostly Cloudy
9:15 AM 51.8 °F - 41.0 °F 67% 29.71 in 10.0 mi SW 19.6 mph 28.8 mph N/A   Overcast
9:35 AM 51.8 °F - 41.0 °F 67% 29.71 in 10.0 mi SW 12.7 mph 28.8 mph N/A   Overcast
9:55 AM 51.8 °F - 41.0 °F 67% 29.71 in 10.0 mi SW 16.1 mph 24.2 mph N/A   Overcast
10:15 AM 51.8 °F - 41.0 °F 67% 29.71 in 10.0 mi SW 16.1 mph 25.3 mph N/A   Overcast
10:35 AM 50.0 °F - 39.2 °F 66% 29.72 in 10.0 mi SW 25.3 mph 31.1 mph N/A   Overcast
10:55 AM 50.0 °F - 39.2 °F 66% 29.72 in 10.0 mi SW 26.5 mph 32.2 mph N/A   Overcast
11:15 AM 50.0 °F - 39.2 °F 66% 29.73 in 10.0 mi SW 23.0 mph 28.8 mph N/A   Overcast
11:35 AM 48.2 °F - 37.4 °F 66% 29.74 in 10.0 mi SW 24.2 mph 32.2 mph N/A   Overcast
11:55 AM 46.4 °F 38.7 °F 37.4 °F 71% 29.75 in 10.0 mi SW 20.7 mph 34.5 mph N/A   Overcast
12:15 PM 46.4 °F 38.3 °F 35.6 °F 66% 29.76 in 10.0 mi SW 23.0 mph 36.8 mph N/A   Overcast
12:35 PM 46.4 °F 38.5 °F 35.6 °F 66% 29.77 in 10.0 mi WSW 21.9 mph 32.2 mph N/A   Overcast
12:55 PM 48.2 °F - 33.8 °F 58% 29.78 in 10.0 mi WSW 28.8 mph 36.8 mph N/A   Overcast
1:15 PM 48.2 °F - 33.8 °F 58% 29.79 in 10.0 mi WSW 24.2 mph 39.1 mph N/A   Overcast
1:35 PM 48.2 °F - 32.0 °F 54% 29.80 in 10.0 mi WSW 21.9 mph 34.5 mph N/A   Overcast
1:55 PM 48.2 °F - 32.0 °F 54% 29.80 in 10.0 mi WSW 21.9 mph 32.2 mph N/A   Overcast
2:15 PM 46.4 °F 39.5 °F 32.0 °F 57% 29.81 in 10.0 mi WSW 17.3 mph 36.8 mph N/A   Overcast
2:35 PM 48.2 °F - 30.2 °F 50% 29.82 in 10.0 mi WSW 20.7 mph 35.7 mph N/A   Overcast
2:55 PM 46.4 °F 38.5 °F 30.2 °F 53% 29.82 in 10.0 mi WSW 21.9 mph 32.2 mph N/A   Overcast
3:15 PM 48.2 °F - 30.2 °F 50% 29.83 in 10.0 mi West 19.6 mph 38.0 mph N/A   Overcast
3:35 PM 48.2 °F - 28.4 °F 46% 29.84 in 10.0 mi WSW 28.8 mph 34.5 mph N/A   Overcast
3:55 PM 48.2 °F - 28.4 °F 46% 29.84 in 10.0 mi West 21.9 mph 39.1 mph N/A   Overcast
4:15 PM 48.2 °F - 28.4 °F 46% 29.85 in 10.0 mi West 24.2 mph 34.5 mph N/A   Overcast
4:35 PM 46.4 °F 37.7 °F 28.4 °F 50% 29.86 in 10.0 mi West 26.5 mph 35.7 mph N/A   Overcast
4:55 PM 46.4 °F 38.1 °F 28.4 °F 50% 29.87 in 10.0 mi West 24.2 mph 31.1 mph N/A   Overcast
5:15 PM 46.4 °F 38.5 °F 28.4 °F 50% 29.88 in 10.0 mi WSW 21.9 mph 33.4 mph N/A   Overcast
5:35 PM 44.6 °F 37.2 °F 28.4 °F 53% 29.89 in 10.0 mi West 17.3 mph 33.4 mph N/A   Overcast
5:55 PM 44.6 °F 36.4 °F 28.4 °F 53% 29.89 in 10.0 mi WSW 20.7 mph 31.1 mph N/A   Overcast
6:15 PM 44.6 °F 35.9 °F 28.4 °F 53% 29.90 in 10.0 mi West 23.0 mph 32.2 mph N/A   Overcast
6:35 PM 42.8 °F 34.5 °F 28.4 °F 57% 29.90 in 10.0 mi West 18.4 mph 29.9 mph N/A   Overcast
6:55 PM 42.8 °F 34.3 °F 30.2 °F 61% 29.90 in 10.0 mi WSW 19.6 mph 26.5 mph N/A   Overcast
7:15 PM 42.8 °F 33.5 °F 30.2 °F 61% 29.91 in 10.0 mi West 23.0 mph 29.9 mph N/A   Mostly Cloudy
7:35 PM 42.8 °F 33.3 °F 28.4 °F 57% 29.92 in 10.0 mi West 24.2 mph 31.1 mph N/A   Overcast
7:55 PM 41.0 °F 30.7 °F 28.4 °F 61% 29.93 in 10.0 mi West 25.3 mph 32.2 mph N/A   Mostly Cloudy
8:15 PM 41.0 °F 31.4 °F 28.4 °F 61% 29.93 in 10.0 mi West 21.9 mph 29.9 mph N/A   Mostly Cloudy
8:35 PM 41.0 °F 31.9 °F 28.4 °F 61% 29.93 in 10.0 mi WSW 19.6 mph 28.8 mph N/A   Overcast
9:15 PM 41.0 °F 31.1 °F 26.6 °F 57% 29.93 in 10.0 mi West 23.0 mph 32.2 mph N/A   Overcast
9:35 PM 39.2 °F 29.6 °F 28.4 °F 65% 29.93 in 10.0 mi WSW 19.6 mph 28.8 mph N/A   Overcast
9:55 PM 39.2 °F 30.5 °F 28.4 °F 65% 29.93 in 10.0 mi WSW 16.1 mph 27.6 mph N/A   Overcast
10:15 PM 39.2 °F 30.2 °F 28.4 °F 65% 29.93 in 10.0 mi WSW 17.3 mph 25.3 mph N/A   Overcast
10:35 PM 39.2 °F 31.2 °F 28.4 °F 65% 29.94 in 10.0 mi West 13.8 mph 27.6 mph N/A   Overcast
10:55 PM 39.2 °F 30.5 °F 28.4 °F 65% 29.94 in 10.0 mi WSW 16.1 mph 21.9 mph N/A   Overcast
11:15 PM 39.2 °F 30.5 °F 28.4 °F 65% 29.94 in 10.0 mi West 16.1 mph 25.3 mph N/A   Overcast
11:35 PM 39.2 °F 31.2 °F 28.4 °F 65% 29.94 in 10.0 mi WSW 13.8 mph 24.2 mph N/A   Overcast
11:55 PM 39.2 °F 29.3 °F 26.6 °F 61% 29.94 in 10.0 mi WSW 20.7 mph 27.6 mph N/A   Overcast